< < Back
Terminal Aerodrome Forecast


Current Version              Previous Versions:   1  2  3  4  5  6  7  8  9  

Terminal Aerodrome Forecast

328
FTUS42 KILM 291730
TAFFLO
TAF
KFLO 291730Z 2918/3018 04008KT P6SM SCT045 BKN250
     FM292000 07008KT P6SM SCT050 BKN250
     FM300100 10004KT P6SM OVC250
     FM301200 00000KT P6SM BKN050=



Latest METAR

764
SAUS70 KWBC 300600 RRE
MTRFLO
METAR KFLO 300553Z AUTO 00000KT 10SM CLR 22/18 A3013 RMK AO2 SLP199
T02170178 10261 20211 58004


USA.gov is the U.S. government's official web portal to all federal, state and local government web resources and services.